Location: Emory University Observatory
(33.7903°N, 84.3267°W)
Time: 19:00:18
(UTC-04:00)

N. Korean satellite - Pass Details

Date: 14 October 2017
Orbit: 459 x 517 km, 97.2° (Epoch: 22 October)

Event Time Altitude Azimuth Distance (km) Brightness Sun altitude
Rises 19:21:11 0° 152° (SSE) 2,555 10.0 -4.3°
Reaches altitude 10° 19:23:21 10° 145° (SE) 1,668 9.0 -4.8°
Maximum altitude 19:26:42 39° 75° (ENE) 736 7.0 -5.4°
Drops below altitude 10° 19:30:01 10° 6° (N) 1,648 9.1 -6.1°
Sets 19:32:09 0° 358° (N) 2,521 10.2 -6.6°
